COSMOS 2428

Last updated on Sun Jun 21 2026 00:02:16 GMT+0000 (Coordinated Universal Time)

1 31792U 07029A 26170.90473080 -.00000091 00000+0 -23180-4 0 9996 2 31792 70.9350 348.7715 0007125 129.7553 230.4196 14.12927887978536
UTC large
Height (km)
Speed (km/s)
/
Latitude / Longitude
Inclination (degrees)
Orbital Period (minutes)
Azimuth
Elevation
Range (km)
Doppler Factor

Next 0 passes for location: London (51.5072 / 0.1276)

No passes found over London.
COSMOS 2428